Location: Peebles
(55.6412°N, 3.1714°W)
Time: 03:15:51
(UTC+01:00)

Envisat - Pass Details

Date: 16 August 2022
Orbit: 763 x 765 km, 98.2° (Epoch: 30 September)

Event Time Altitude Azimuth Distance (km) Brightness Sun altitude
Rises 04:46:30 0° 21° (NNE) 3,248 7.4 -8.0°
Reaches altitude 10° 04:49:11 10° 34° (NE) 2,316 6.9 -7.7°
Maximum altitude 04:53:28 26° 91° (E) 1,464 5.2 -7.2°
Drops below altitude 10° 04:57:42 10° 148° (SSE) 2,300 5.4 -6.7°
Sets 05:00:21 0° 161° (SSE) 3,221 6.1 -6.4°
